Location: Hains Lake
(37.8540°N, 99.8578°W)
Time: 09:46:14
(UTC+00:00)

Tiros 1 despin weight - Pass Details

Date: 27 April 2021
Orbit: 593 x 642 km, 48.2° (Epoch: 07 May)

Event Time Altitude Azimuth Distance (km) Brightness Sun altitude
Rises 13:46:49 0° 305° (NW) 2,902 ? 22.2°
Reaches altitude 10° 13:49:16 10° 313° (NW) 1,985 ? 22.7°
Maximum altitude 13:53:34 40° 23° (NNE) 903 ? 23.6°
Drops below altitude 10° 13:57:48 10° 94° (E) 1,950 ? 24.4°
Sets 14:00:11 0° 102° (ESE) 2,843 ? 24.9°
